Location: Beekmeers
(50.8953°N, 3.6968°E)
Time: 00:02:44
(UTC+00:00)

H-2A R/B - Pass Details

Date: 13 August 2024
Orbit: 566 x 633 km, 98.4° (Epoch: 07 September)

Event Time Altitude Azimuth Distance (km) Brightness Sun altitude
Rises 02:00:49 0° 359° (N) 2,848 6.4 -18.6°
Reaches altitude 10° 02:04:12 10° 330° (NNW) 1,957 4.9 -18.3°
Maximum altitude 02:05:54 12° 306° (NW) 1,817 4.5 -18.2°
Drops below altitude 10° 02:07:36 10° 282° (WNW) 1,969 4.4 -18.0°
Enters shadow 02:07:41 10° 281° (W) 1,982 4.4 -18.0°
